Location: ????????
(56.1167°N, 38.6333°E)
Time: 20:58:43
(UTC+00:00)

SPOT 5 - Pass Details

Date: 18 November 2025
Orbit: 618 x 803 km, 98.0° (Epoch: 14 December)

Event Time Altitude Azimuth Distance (km) Brightness Sun altitude
Exits shadow 16:46:50 29° 358° (N) 1,413 4.4 -29.3°
Drops below altitude 10° 16:49:21 10° 349° (N) 2,339 5.7 -29.7°
Sets 16:51:39 0° 346° (NNW) 3,248 6.5 -30.0°
